Weather History for Oxford, NC

Change the Weather History Date:

Wednesday, November 28, 2012

  Actual Average (KTDF) Record (KTDF)
Temperature  
Mean Temperature 41 °F -  
Max Temperature 50 °F 60 °F 82 °F (2001)
Min Temperature 30 °F 37 °F 13 °F (1991)
Degree Days  
Heating Degree Days 24    
Moisture  
Dew Point 30 °F    
Average Humidity 75    
Maximum Humidity 100    
Minimum Humidity 43    
Precipitation  
Precipitation 0.00 in - - ()
Sea Level Pressure  
Sea Level Pressure 30.31 in    
Wind  
Wind Speed 4 mph (NW)    
Max Wind Speed 8 mph    
Max Gust Speed -    
Visibility 9 miles    
Events      
Averages and records for this station are not official NWS values.
T = Trace of Precipitation, MM = Missing Value Source: NWS Daily Summary

Daily Weather History Graph

Daily Weather History Graph

Search for Another Location

Airport:

Trip Planner

Search our weather history database for the weather conditions in past years. The results will help you decide how hot, cold, wet, or windy it might be!

Date:

Astronomy

Nov. 28, 2012 Rise Set
Actual Time 7:04 AM EST 4:59 PM EST
Civil Twilight 6:36 AM EST 5:27 PM EST
Nautical Twilight 6:04 AM EST 5:59 PM EST
Astronomical Twilight 5:33 AM EST 6:30 PM EST
Moon 5:13 PM EST (11/28) 7:00 AM EST (11/28)
Length of Visible Light 10h 51m
Length of Day
9h 54m
Full, 100% of the Moon is Illuminated
Nov 28
Full
Dec 6
Last Quarter
Dec 13
New
Dec 20
First Quarter
Dec 28
Full

Hourly Weather History & Observations

Time (EST) Temp. Windchill Dew Point Humidity Pressure Visibility Wind Dir Wind Speed Gust Speed Precip Events Conditions
12:35 AM 35.6 °F 32.8 °F 33.8 °F 93% 30.25 in 7.0 mi North 3.5 mph - N/A   Clear
12:55 AM 33.8 °F 30.8 °F 33.8 °F 100% 30.25 in 7.0 mi North 3.5 mph - N/A   Clear
1:15 AM 33.8 °F 30.8 °F 32.0 °F 93% 30.25 in 7.0 mi NNW 3.5 mph - N/A   Clear
1:35 AM 33.8 °F 30.8 °F 32.0 °F 93% 30.24 in 7.0 mi North 3.5 mph - N/A   Clear
1:55 AM 33.8 °F 30.8 °F 32.0 °F 93% 30.25 in 7.0 mi North 3.5 mph - N/A   Clear
2:15 AM 33.8 °F 29.6 °F 32.0 °F 93% 30.25 in 7.0 mi North 4.6 mph - N/A   Clear
2:35 AM 33.8 °F 29.6 °F 32.0 °F 93% 30.26 in 7.0 mi North 4.6 mph - N/A   Scattered Clouds
2:55 AM 33.8 °F 29.6 °F 32.0 °F 93% 30.26 in 7.0 mi NNW 4.6 mph - N/A   Scattered Clouds
3:15 AM 32.0 °F 28.7 °F 32.0 °F 100% 30.25 in 7.0 mi North 3.5 mph - N/A   Mostly Cloudy
3:55 AM 33.8 °F 30.8 °F 32.0 °F 93% 30.25 in 5.0 mi NNW 3.5 mph - N/A   Overcast
4:15 AM 33.8 °F 30.8 °F 32.0 °F 93% 30.26 in 7.0 mi NNW 3.5 mph - N/A   Overcast
4:35 AM 33.8 °F 29.6 °F 32.0 °F 93% 30.26 in 7.0 mi North 4.6 mph - N/A   Overcast
4:55 AM 33.8 °F 30.8 °F 32.0 °F 93% 30.26 in 7.0 mi NNW 3.5 mph - N/A   Overcast
5:15 AM 33.8 °F 29.6 °F 32.0 °F 93% 30.27 in 7.0 mi NNW 4.6 mph - N/A   Overcast
5:35 AM 33.8 °F 29.6 °F 32.0 °F 93% 30.27 in 7.0 mi North 4.6 mph - N/A   Overcast
5:55 AM 33.8 °F 29.6 °F 32.0 °F 93% 30.27 in 7.0 mi North 4.6 mph - N/A   Mostly Cloudy
6:15 AM 33.8 °F - 32.0 °F 93% 30.28 in 5.0 mi Calm Calm - N/A   Overcast
6:35 AM 33.8 °F - 32.0 °F 93% 30.29 in 7.0 mi Calm Calm - N/A   Overcast
6:55 AM 33.8 °F - 32.0 °F 93% 30.30 in 7.0 mi Calm Calm - N/A   Overcast
7:15 AM 33.8 °F - 32.0 °F 93% 30.30 in 5.0 mi Calm Calm - N/A   Overcast
7:35 AM 33.8 °F - 32.0 °F 93% 30.31 in 5.0 mi Calm Calm - N/A   Overcast
7:55 AM 33.8 °F - 32.0 °F 93% 30.32 in 7.0 mi Calm Calm - N/A   Overcast
8:15 AM 35.6 °F 32.8 °F 32.0 °F 87% 30.32 in 7.0 mi WNW 3.5 mph - N/A   Mostly Cloudy
8:35 AM 35.6 °F 31.7 °F 32.0 °F 87% 30.33 in 7.0 mi NNW 4.6 mph - N/A   Mostly Cloudy
8:55 AM 35.6 °F 32.8 °F 32.0 °F 87% 30.33 in 10.0 mi NNW 3.5 mph - N/A   Overcast
9:15 AM 37.4 °F - 32.0 °F 81% 30.34 in 10.0 mi Calm Calm - N/A   Scattered Clouds
9:35 AM 37.4 °F 34.9 °F 32.0 °F 81% 30.34 in 10.0 mi NNE 3.5 mph - N/A   Clear
9:55 AM 41.0 °F 38.0 °F 32.0 °F 70% 30.34 in 10.0 mi North 4.6 mph - N/A   Clear
10:15 AM 41.0 °F 39.0 °F 32.0 °F 70% 30.35 in 10.0 mi NW 3.5 mph - N/A   Clear
10:35 AM 41.0 °F 37.1 °F 32.0 °F 70% 30.35 in 10.0 mi North 5.8 mph - N/A   Scattered Clouds
10:55 AM 42.8 °F 41.1 °F 32.0 °F 66% 30.35 in 10.0 mi North 3.5 mph - N/A   Scattered Clouds
11:15 AM 42.8 °F 38.6 °F 32.0 °F 66% 30.34 in 10.0 mi North 6.9 mph - N/A   Clear
11:35 AM 42.8 °F 40.1 °F 32.0 °F 66% 30.33 in 10.0 mi NW 4.6 mph - N/A   Scattered Clouds
11:55 AM 44.6 °F 40.7 °F 32.0 °F 61% 30.33 in 10.0 mi North 6.9 mph - N/A   Mostly Cloudy
12:15 PM 44.6 °F 40.7 °F 32.0 °F 61% 30.32 in 10.0 mi North 6.9 mph - N/A   Scattered Clouds
12:35 PM 44.6 °F 40.7 °F 32.0 °F 61% 30.32 in 10.0 mi NW 6.9 mph - N/A   Clear
12:55 PM 46.4 °F 42.4 °F 32.0 °F 57% 30.30 in 10.0 mi West 8.1 mph - N/A   Clear
1:15 PM 46.4 °F 42.9 °F 30.2 °F 53% 30.30 in 10.0 mi West 6.9 mph - N/A   Clear
1:35 PM 48.2 °F - 30.2 °F 50% 30.29 in 10.0 mi NW 5.8 mph - N/A   Clear
1:55 PM 48.2 °F - 30.2 °F 50% 30.29 in 10.0 mi NW 6.9 mph - N/A   Clear
2:15 PM 48.2 °F - 30.2 °F 50% 30.28 in 10.0 mi WNW 6.9 mph - N/A   Clear
2:35 PM 50.0 °F - 30.2 °F 47% 30.28 in 10.0 mi WNW 4.6 mph - N/A   Clear
2:55 PM 50.0 °F - 28.4 °F 43% 30.28 in 10.0 mi West 6.9 mph - N/A   Clear
3:15 PM 50.0 °F - 28.4 °F 43% 30.28 in 10.0 mi WNW 5.8 mph - N/A   Clear
3:35 PM 48.2 °F - 28.4 °F 46% 30.28 in 10.0 mi NW 5.8 mph - N/A   Clear
3:55 PM 48.2 °F - 28.4 °F 46% 30.28 in 10.0 mi West 4.6 mph - N/A   Clear
4:15 PM 48.2 °F - 28.4 °F 46% 30.29 in 10.0 mi West 4.6 mph - N/A   Clear
4:35 PM 46.4 °F - 26.6 °F 46% 30.29 in 10.0 mi Calm Calm - N/A   Clear
4:55 PM 46.4 °F 44.3 °F 26.6 °F 46% 30.30 in 10.0 mi West 4.6 mph - N/A   Clear
5:15 PM 46.4 °F - 26.6 °F 46% 30.30 in 10.0 mi Calm Calm - N/A   Clear
5:35 PM 44.6 °F 42.2 °F 26.6 °F 49% 30.30 in 10.0 mi WNW 4.6 mph - N/A   Clear
5:55 PM 41.0 °F 37.1 °F 28.4 °F 61% 30.31 in 10.0 mi SSE 5.8 mph - N/A   Clear
6:15 PM 41.0 °F - 28.4 °F 61% 30.32 in 10.0 mi Calm Calm - N/A   Clear
6:55 PM 35.6 °F 31.7 °F 28.4 °F 75% 30.32 in 7.0 mi SSE 4.6 mph - N/A   Clear
7:15 PM 41.0 °F 39.0 °F 28.4 °F 61% 30.33 in 10.0 mi WSW 3.5 mph - N/A   Clear
7:35 PM 33.8 °F 29.6 °F 30.2 °F 87% 30.34 in 10.0 mi SSW 4.6 mph - N/A   Clear
7:55 PM 37.4 °F 34.9 °F 28.4 °F 70% 30.34 in 10.0 mi WSW 3.5 mph - N/A   Clear
8:15 PM 33.8 °F 30.8 °F 30.2 °F 87% 30.35 in 10.0 mi WSW 3.5 mph - N/A   Clear
8:55 PM 33.8 °F 30.8 °F 26.6 °F 75% 30.36 in 10.0 mi WSW 3.5 mph - N/A   Clear
9:15 PM 32.0 °F - 28.4 °F 87% 30.36 in 10.0 mi Calm Calm - N/A   Clear
9:35 PM 32.0 °F - 28.4 °F 87% 30.36 in 10.0 mi Calm Calm - N/A   Clear
9:55 PM 32.0 °F - 26.6 °F 80% 30.36 in 10.0 mi Calm Calm - N/A   Clear
10:15 PM 33.8 °F - 26.6 °F 75% 30.37 in 10.0 mi Calm Calm - N/A   Clear
10:35 PM 32.0 °F - 26.6 °F 80% 30.37 in 10.0 mi Calm Calm - N/A   Clear
10:55 PM 32.0 °F - 26.6 °F 80% 30.37 in 10.0 mi Calm Calm - N/A   Clear
11:15 PM 32.0 °F - 26.6 °F 80% 30.37 in 10.0 mi Calm Calm - N/A   Clear
11:35 PM 35.6 °F - 23.0 °F 60% 30.38 in 10.0 mi Calm Calm - N/A   Clear
11:55 PM 30.2 °F - 24.8 °F 80% 30.38 in 10.0 mi Calm Calm - N/A   Clear